Weather observations for the past three days for
Rickenbacker Air National Guard Base
Imperial (Metric)
Date Time (edt) Wind (mph) Vis. (mi.) Weather Sky Cond. Temperature (ºF) Relative Humidity Wind Chill (°F) Heat Index (°F) Pressure Precipitation (in)
Air Dwpt 6 hour altimeter (in) sea level (mb) 1 hr 3 hr 6 hr
Max. Min.
20 21:55 N 5 10.00 Fair CLR 74.5 56.1 53% 30.08 0.0
20 20:55 W 7 10.00 Fair CLR 76.8 57.6 52% 79 30.06 0.0
20 19:55 W 7 10.00 Partly Cloudy SCT065 79.3 57.6 84.9 79.3 47% 80 30.06 0.0
20 18:55 W 12 10.00 Fair CLR 81.3 56.1 42% 81 30.06 0.0
20 17:55 W 9 10.00 Fair CLR 83.7 57.2 41% 83 30.05 0.0
20 16:55 W 7 10.00 Fair CLR 84 55.9 38% 83 30.06 0.0
20 15:55 Calm 10.00 Fair CLR 84.4 55.6 37% 83 30.07 0.0
20 14:55 W 5 10.00 Fair CLR 83.1 53.8 36% 82 30.08 0.0
20 13:55 SW 6 10.00 Fair CLR 83.3 55.6 83.3 64.8 39% 82 30.1 0.0
20 12:55 Calm 10.00 Fair CLR 80.8 54.5 40% 81 30.11 0.0
20 11:55 NW 5 10.00 Fair CLR 79.5 54.9 43% 80 30.12 0.0
20 10:55 N 3 10.00 Fair CLR 76.3 56.7 51% 78 30.11 0.0
20 09:55 Calm 10.00 Fair CLR 71.6 56.3 59% 30.12 0.0
20 08:55 N 3 10.00 Fair CLR 67.8 54.3 62% 30.13 0.0
20 07:55 Calm 10.00 Fair CLR 64.4 53.2 64.4 59.7 67% 30.12 0.0
20 06:55 N 5 10.00 Fair CLR 61 52.5 74% 30.11 0.0
20 05:55 NW 3 10.00 Partly Cloudy SCT065 61.5 52.9 73% 30.11 0.0
20 03:55 NE 6 10.00 Fair CLR 63.3 52.7 68% 30.09 0.0
20 02:55 Calm 10.00 Fair CLR 64 54.5 71% 30.09 0.0
20 01:55 NE 6 10.00 Fair CLR 64 55.4 76.1 63.7 74% 30.11 0.0
20 00:55 NE 8 10.00 Fair CLR 66.9 56.7 70% 30.12 0.0
19 23:55 Calm 10.00 Fair CLR 68.4 57.9 69% 30.12 0.0
19 22:55 Calm 10.00 Fair CLR 71.4 56.3 59% 30.12 0.0
19 21:55 NE 3 10.00 Fair CLR 72.5 55.6 55% 30.1 0.0
19 20:55 E 3 10.00 Fair CLR 73 60.3 64% 30.1 0.0
19 19:55 E 3 10.00 Fair CLR 76.1 58.3 80.8 76.1 54% 78 30.09 0.0
19 18:55 E 6 10.00 Fair CLR 79.3 54.9 43% 80 30.09 0.0
19 17:55 SE 7 10.00 Fair CLR 80.4 52.2 38% 80 30.09 0.0
19 16:55 E 5 10.00 Fair CLR 80.2 51.6 37% 80 30.11 0.0
19 15:55 Calm 10.00 Fair CLR 79.3 54.1 42% 80 30.13 0.0
19 14:55 Calm 10.00 Fair CLR 77.5 52.7 42% 79 30.15 0.0
19 13:55 SE 5 10.00 Fair CLR 76.8 53.6 77 63 45% 78 30.17 0.0
19 12:55 Calm 10.00 Fair CLR 74.8 52.9 46% 30.18 0.0
19 11:55 Calm 10.00 Fair CLR 73.9 54.3 50% 30.18 0.0
19 10:55 E 5 10.00 Fair CLR 71.6 53.6 53% 30.19 0.0
19 09:55 NE 5 10.00 Fair CLR 68.9 54.9 61% 30.2 0.0
19 08:55 Calm 10.00 Fair CLR 65.5 56.5 73% 30.21 0.0
19 07:55 Calm 10.00 Fair CLR 62.4 57 62.4 57.2 83% 30.19 0.0
19 06:55 N 3 10.00 Fair CLR 58.8 54.5 86% 30.17 0.0
19 05:55 N 3 10.00 Fair CLR 59.4 54.3 84% 30.16 0.0
19 04:55 Calm 10.00 Fair CLR 57.9 54.7 89% 30.16 0.0
19 03:55 NE 5 10.00 Fair CLR 59 55 87% 30.15 0.0
19 02:55 NE 6 10.00 Fair CLR 59.9 55.4 85% 30.15 0.0
19 01:55 NE 6 10.00 Fair CLR 61 55.4 75.6 61 82% 30.15 0.0
19 00:55 NE 7 10.00 Fair CLR 62.6 55 76% 30.15 0.0
18 23:55 NE 8 10.00 Fair CLR 63.7 54.7 73% 30.14 0.0
18 22:55 N 9 10.00 Fair CLR 68 54.5 62% 30.13 0.0
18 21:55 N 10 10.00 Fair CLR 70.2 54.9 58% 30.11 0.0
18 20:55 N 15 10.00 Fair CLR 72.9 55.4 54% 30.09 0.0
18 19:55 N 14 10.00 Partly Cloudy SCT060 76.1 55 82 75.7 48% 78 30.07 0.0
18 18:55 N 10 10.00 Mostly Cloudy BKN060 78.4 56.1 46% 79 30.06 0.0
18 17:55 N 13 G 17 10.00 Mostly Cloudy SCT060 BKN070 78.6 56.8 47% 80 30.05 0.0
18 16:55 NW 12 G 18 10.00 Overcast OVC060 79.3 56.8 46% 80 30.05 0.0
18 15:55 NW 7 10.00 Partly Cloudy SCT055 80.2 55.2 42% 80 30.05 0.0
18 14:55 N 10 G 16 10.00 Mostly Cloudy SCT050 BKN065 BKN070 78.1 58.1 50% 79 30.06 0.0
18 13:55 N 7 10.00 Mostly Cloudy SCT048 BKN055 BKN065 77.5 57.9 78.8 64.4 51% 79 30.06 0.0
18 12:55 NE 10 G 16 10.00 Partly Cloudy SCT034 SCT040 SCT048 77.4 60.1 55% 79 30.07 0.0 0.01
18 11:55 N 10 10.00 Mostly Cloudy BKN030 75.2 61.7 63% 77 30.08 0.0
18 10:55 N 8 10.00 Partly Cloudy SCT038 SCT045 72.1 61.7 70% 30.08 0.0
18 09:55 N 10 10.00 Overcast OVC026 70 60.6 72% 30.06 0.0
18 08:55 N 8 10.00 Mostly Cloudy SCT022 BKN045 65.1 57.7 77% 30.06 0.0
18 07:55 N 8 10.00 Fair CLR 64.4 56.8 68.4 63.7 77% 30.04 0.0
18 06:55 N 8 10.00 Fair CLR 63.7 56.1 77% 30.01 0.0
18 05:55 N 8 10.00 Fair CLR 64.6 56.1 74% 30 0.0
18 04:55 N 6 10.00 Fair CLR 65.1 56.5 74% 29.98 0.0
18 03:55 NW 7 10.00 Fair CLR 66.2 57.2 73% 29.98 0.0
18 01:55 NW 9 10.00 Fair CLR 68.9 62.1 77.2 68.5 79% 29.98 0.0
18 00:55 SW 5 10.00 Partly Cloudy SCT120 68.5 67.8 98% 29.98 0.0
17 23:55 SW 3 10.00 Partly Cloudy SCT090 68.9 68 97% 29.98 0.0
17 22:55 SW 5 10.00 Mostly Cloudy BKN090 69.3 67.1 93% 29.96 0.0
Date Time (edt) Wind (mph) Vis. (mi.) Weather Sky Cond. Air Dwpt Max. Min. Relative Humidity Wind Chill (°F) Heat Index (°F) altimeter (in) sea level (mb) 1 hr 3 hr 6 hr
6 hour
Temperature (ºF) Pressure Precipitation (in)